Location: El Diablo
(32.4667°N, 116.4500°W)
Time: 01:31:01
(UTC+00:00)

Cosmos 2058 Rocket - Pass Details

Date: 10 September 2024
Orbit: 607 x 634 km, 82.5° (Epoch: 06 October)

Event Time Altitude Azimuth Distance (km) Brightness Sun altitude
Rises 12:24:18 0° 179° (S) 2,873 6.3 -13.8°
Reaches altitude 10° 12:26:31 10° 176° (S) 1,976 5.5 -13.3°
Maximum altitude 12:30:51 67° 95° (E) 675 3.5 -12.5°
Drops below altitude 10° 12:35:16 10° 12° (NNE) 2,007 6.0 -11.6°
Sets 12:37:32 0° 10° (N) 2,922 6.8 -11.1°
